"Pseudo-MPEC" for P10WjoJ

Created 2020 Feb 21 6:07:18 UT using Find_Orb

Click here for an explanation of pseudo-MPECs

 
 Astrometry: 
     P10WjoJ  C2020 01 21VaDBy`1TMa@#rN$_-TYZ(uAstrometry_3jf)%?9[[]X4w4QaaKeF51
     P10WjoJ  C2020 01 214SCsaxRuZNZmrFredacted;PR@igU'Ei$Yi0A+5`?i)l*[y%;M`/F51
     P10WjoJ  C2020 01 21y`_Q)s[0%hRHxMS43LWp?a,@GE0DApPGSI]cAbQs0*Fd36O^U6jMF51
     P10WjoJ |C2020 01 22V7r7qXrGYKJhk$click??5IeSASiJ7y`'qrybtJtFKSKhereupm@807
     P10WjoJ |C2020 01 22N3_=6Kp2X:\o9wP?HrdwB^wmk#B;pcj]-N'X`_rvforTeM^^OaW9807
     P10WjoJ |C2020 01 228Swi!Clw^=`(c6(jHB*@?8+Fwiv85PTexplanationg?/0f,n)Gw807

Station data:
(807) Cerro Tololo Observatory, La Serena  (S30.169136 W70.805900)  Chile.
(F51) Pan-STARRS 1, Haleakala  (N20.707235 W156.255910)  US/Hawaii.
   Observers N. Primak, A. Schultz, S. Watters, J. Thiel, T. Goggia. Measurer
   PS1 Science Consortium. 1.8-m Ritchey-Chrétien + CCD.

Orbital elements:  P10WjoJ
   Perihelion 2020 Feb 2.753580 +/- 0.163 TT = 18:05:09 (JD 2458882.253580)
Epoch 2020 Jan 22.0 TT = JDT 2458870.5   Earth MOID: 0.0105   Ma: 0.0809
M 356.61978262 +/- 0.20             (J2000 ecliptic)          AutoNEOCP
n   0.28759045 +/- 0.021            Peri.  349.41514 +/- 1.5
a   2.27310625 +/- 0.111            Node   144.89212 +/- 1.2
e   0.5626077 +/- 0.0214            Incl.    3.17125 +/- 0.19
P   3.43                   H 26.8   G  0.15   U 10.1  
q 0.99423914 +/- 0.000487    Q 3.55197336 +/- 0.228
From 6 observations 2020 Jan. 21-22 (21.3 hr); mean residual 0".07
Residuals in arcseconds: 
200121 F51  .07+  .03+    200121 F51  .03+  .07-    200122 807  .09+  .02-    
200121 F51  .10-  .03+    200122 807  .12-  .08+    200122 807  .02+  .06-    

Ephemerides (geocentric):
Date (UTC) HH   RA              Dec         delta   r     elong  mag " sig PA
---- -- -- --  -------------   -----------  ------ ------ -----  --- ---- ---
2020 02 21 06  14 54 14.273   -09 02 30.75  .09551 1.0221 107.8 24.1 2688  58
2020 02 21 07  14 54 17.322   -09 01 39.62  .09568 1.0222 107.8 24.1 2686  58
2020 02 21 08  14 54 20.352   -09 00 48.64  .09584 1.0224 107.9 24.1 2684  58
2020 02 21 09  14 54 23.365   -08 59 57.80  .09600 1.0225 107.9 24.1 2682  58
2020 02 21 10  14 54 26.360   -08 59 07.11  .09617 1.0226 107.9 24.1 2680  58
2020 02 21 11  14 54 29.338   -08 58 16.56  .09633 1.0227 108.0 24.1 2678  58
2020 02 21 12  14 54 32.299   -08 57 26.15  .09649 1.0229 108.0 24.1 2676  58
2020 02 21 13  14 54 35.242   -08 56 35.88  .09666 1.0230 108.0 24.1 2674  58
2020 02 21 14  14 54 38.168   -08 55 45.75  .09682 1.0231 108.1 24.1 2672  58
2020 02 21 15  14 54 41.077   -08 54 55.76  .09698 1.0232 108.1 24.1 2670  58
2020 02 21 16  14 54 43.968   -08 54 05.91  .09714 1.0234 108.1 24.2 2668  58
2020 02 21 17  14 54 46.843   -08 53 16.20  .09731 1.0235 108.2 24.2 2666  58
2020 02 21 18  14 54 49.701   -08 52 26.63  .09747 1.0236 108.2 24.2 2664  58
2020 02 21 19  14 54 52.542   -08 51 37.19  .09763 1.0237 108.2 24.2 2662  58
2020 02 21 20  14 54 55.366   -08 50 47.89  .09780 1.0239 108.3 24.2 2660  58
2020 02 21 21  14 54 58.173   -08 49 58.72  .09796 1.0240 108.3 24.2 2658  58
2020 02 21 22  14 55 00.964   -08 49 09.69  .09812 1.0241 108.4 24.2 2656  58
2020 02 21 23  14 55 03.738   -08 48 20.80  .09829 1.0243 108.4 24.2 2654  58
2020 02 22 00  14 55 06.495   -08 47 32.03  .09845 1.0244 108.4 24.2 2653  58
2020 02 22 01  14 55 09.236   -08 46 43.40  .09861 1.0245 108.5 24.2 2651  58
2020 02 22 02  14 55 11.960   -08 45 54.90  .09878 1.0246 108.5 24.2 2649  58
2020 02 22 03  14 55 14.669   -08 45 06.53  .09894 1.0248 108.5 24.2 2647  58
2020 02 22 04  14 55 17.360   -08 44 18.29  .09910 1.0249 108.6 24.2 2645  58
2020 02 22 05  14 55 20.036   -08 43 30.18  .09926 1.0250 108.6 24.2 2643  58
2020 02 22 06  14 55 22.696   -08 42 42.20  .09943 1.0252 108.6 24.2 2641  58
2020 02 22 07  14 55 25.339   -08 41 54.34  .09959 1.0253 108.7 24.2 2640  58
2020 02 22 08  14 55 27.966   -08 41 06.62  .09975 1.0254 108.7 24.2 2638  58
2020 02 22 09  14 55 30.578   -08 40 19.02  .09992 1.0255 108.7 24.2 2636  58
2020 02 22 10  14 55 33.173   -08 39 31.55  .10008 1.0257 108.8 24.2 2634  58
2020 02 22 11  14 55 35.752   -08 38 44.20  .10024 1.0258 108.8 24.2 2632  58
2020 02 22 12  14 55 38.316   -08 37 56.98  .10040 1.0259 108.8 24.2 2631  58
2020 02 22 13  14 55 40.864   -08 37 09.88  .10057 1.0261 108.9 24.2 2629  58
2020 02 22 14  14 55 43.396   -08 36 22.90  .10073 1.0262 108.9 24.2 2627  58
2020 02 22 15  14 55 45.913   -08 35 36.05  .10089 1.0263 108.9 24.2 2625  58
2020 02 22 16  14 55 48.414   -08 34 49.32  .10105 1.0265 109.0 24.2 2623  58
2020 02 22 17  14 55 50.900   -08 34 02.71  .10122 1.0266 109.0 24.2 2622  58
2020 02 22 18  14 55 53.370   -08 33 16.22  .10138 1.0267 109.0 24.2 2620  58
2020 02 22 19  14 55 55.825   -08 32 29.86  .10154 1.0269 109.1 24.2 2618  58
2020 02 22 20  14 55 58.264   -08 31 43.61  .10171 1.0270 109.1 24.2 2616  58
2020 02 22 21  14 56 00.688   -08 30 57.48  .10187 1.0271 109.1 24.2 2615  58
2020 02 22 22  14 56 03.097   -08 30 11.47  .10203 1.0273 109.2 24.2 2613  58
2020 02 22 23  14 56 05.491   -08 29 25.58  .10219 1.0274 109.2 24.2 2611  58
2020 02 23 00  14 56 07.870   -08 28 39.80  .10236 1.0275 109.2 24.2 2609  58
2020 02 23 01  14 56 10.234   -08 27 54.14  .10252 1.0277 109.3 24.2 2608  58
2020 02 23 02  14 56 12.582   -08 27 08.60  .10268 1.0278 109.3 24.2 2606  58
2020 02 23 03  14 56 14.916   -08 26 23.17  .10284 1.0279 109.4 24.2 2604  58
2020 02 23 04  14 56 17.235   -08 25 37.86  .10301 1.0281 109.4 24.2 2603  58
2020 02 23 05  14 56 19.539   -08 24 52.66  .10317 1.0282 109.4 24.2 2601  58